Home > Weather > Porto Novo > Past weeks

Flag for Benin Past Weather in Porto Novo, Benin — Yesterday and Last 2 Weeks

Now
77 °F

Passing clouds.


Feels Like: 78 °F
Forecast: 76 / 85 °F
Wind: 7 mph from Southwest

Location: Cotonou Airport

Current Time: Jun 26, 2016 at 5:47:14 AM

Latest Report: Jun 26, 2016 at 5:00 AM


Visibility: N/A

Pressure: 29.89 "Hg

Humidity: 89%

Dew Point: 73 °F

Location of Porto NovoLocation

Past Weather in Porto Novo — Graph

°F

Porto Novo Temperature Yesterday

Maximum temperature yesterday: 84 °F (at 2:00 PM)
Minimum temperature yesterday: 77 °F (at 9:00 PM)
Average temperature yesterday: 80 °F

High & Low Weather Summary for the Past Weeks

 TemperatureHumidityPressure
High84 °F (Jun 11, 10:00 AM)100% (Jun 12, 11:00 PM)30.07 "Hg (Jun 12, 11:00 PM)
Low72 °F (Jun 19, 9:00 AM)70% (Jun 22, 1:00 PM)29.83 "Hg (Jun 19, 5:00 PM)
Average79 °F86%29.94 "Hg
* Reported Jun 11 4:00 AM — Jun 26 4:00 AM, Porto Novo, Weather by CustomWeather, © 2016

Note: Actual official high and low records may vary slightly from our data, if they occured in-between our weather recording intervals... More about our weather records

Advertising

Porto Novo Weather History for the Previous 24 Hours

Scroll right to see more
 ConditionsComfort  
Time TempWeatherWind HumidityBarometerVisibility
4:00 AM
Sun, Jun 26
77 °FPassing clouds.10 mph89%29.89 "HgN/A
3:00 AM77 °FPassing clouds.8 mph89%29.89 "HgN/A
2:00 AM77 °FPassing clouds.7 mph89%29.89 "HgN/A
1:00 AM77 °FPassing clouds.7 mph89%29.89 "HgN/A
12:00 AM77 °FPassing clouds.9 mph89%29.92 "HgN/A
11:00 PM
Sat, Jun 25
77 °FPassing clouds.10 mph89%29.92 "HgN/A
10:00 PM77 °FPassing clouds.10 mph89%29.92 "HgN/A
9:00 PM77 °FClear.12 mph89%29.89 "Hg10 mi
8:00 PM79 °FPassing clouds.13 mph84%29.89 "HgN/A
7:00 PM79 °FPassing clouds.14 mph84%29.89 "HgN/A
6:00 PM81 °FScattered clouds.15 mph79%29.89 "HgN/A
5:00 PM81 °FScattered clouds.15 mph79%29.86 "HgN/A
4:00 PM81 °FScattered clouds.15 mph79%29.89 "HgN/A
3:00 PM82 °FScattered clouds.14 mph74%29.89 "HgN/A
2:00 PM84 °FScattered clouds.15 mph74%29.92 "HgN/A
1:00 PM82 °FScattered clouds.15 mph79%29.92 "HgN/A
12:00 PM82 °FScattered clouds.14 mph74%29.92 "HgN/A
11:00 AM82 °FScattered clouds.14 mph79%29.95 "HgN/A
10:00 AM81 °FScattered clouds.13 mph84%29.95 "HgN/A
9:00 AM81 °FScattered clouds.13 mph79%29.95 "Hg5 mi
8:00 AM79 °FScattered clouds.14 mph84%29.92 "Hg5 mi
7:00 AM79 °FScattered clouds.12 mph84%29.92 "Hg5 mi
6:00 AM79 °FPassing clouds.10 mph84%29.89 "Hg5 mi
5:00 AM79 °FPassing clouds.12 mph84%29.89 "Hg5 mi
Weather by CustomWeather, © 2016

See weather overviewHow to use our weather pages